Weather History for San Martin, CA

Change the Weather History Date:

Saturday, March 30, 2013

  Actual Average Record
Temperature  
Mean Temperature 60 °F -  
Max Temperature 69 °F - - ()
Min Temperature 50 °F - - ()
Degree Days  
Heating Degree Days 6    
Growing Degree Days 10 (Base 50)    
Moisture  
Dew Point 50 °F    
Average Humidity 76    
Maximum Humidity 100    
Minimum Humidity 43    
Precipitation  
Precipitation 0.01 in - - ()
Sea Level Pressure  
Sea Level Pressure 30.06 in    
Wind  
Wind Speed 5 mph (South)    
Max Wind Speed 14 mph    
Max Gust Speed 23 mph    
Visibility 9 miles    
Events Rain    
T = Trace of Precipitation, MM = Missing Value Source: NWS Daily Summary

Daily Weather History Graph

Daily Weather History Graph

Search for Another Location

Airport:

Trip Planner

Search our weather history database for the weather conditions in past years. The results will help you decide how hot, cold, wet, or windy it might be!

Date:

Astronomy

Mar. 30, 2013 Rise Set
Actual Time 6:54 AM PDT 7:27 PM PDT
Civil Twilight 6:28 AM PDT 7:53 PM PDT
Nautical Twilight 5:57 AM PDT 8:24 PM PDT
Astronomical Twilight 5:26 AM PDT 8:55 PM PDT
Moon 11:33 PM PDT (3/30) 8:59 AM PDT (3/30)
Length of Visible Light 13h 25m
Length of Day
12h 32m
Waning Gibbous, 85% of the Moon is Illuminated
Mar 30
Waning Gibbous
Apr 2
Last Quarter
Apr 10
New
Apr 18
First Quarter
Apr 25
Full

Hourly Weather History & Observations

Time (PDT) Temp. Dew Point Humidity Pressure Visibility Wind Dir Wind Speed Gust Speed Precip Events Conditions
12:15 AM 55.4 °F 50.0 °F 82% 30.09 in 10.0 mi Calm Calm - N/A   Clear
12:35 AM 55.4 °F 50.0 °F 82% 30.09 in 10.0 mi Calm Calm - N/A   Partly Cloudy
12:55 AM 55.4 °F 50.0 °F 82% 30.08 in 10.0 mi East 3.5 mph - N/A   Partly Cloudy
1:15 AM 53.6 °F 50.0 °F 88% 30.09 in 10.0 mi South 3.5 mph - N/A   Clear
1:35 AM 53.6 °F 50.0 °F 88% 30.08 in 10.0 mi South 4.6 mph - N/A   Clear
1:55 AM 53.6 °F 50.0 °F 88% 30.08 in 10.0 mi SSE 4.6 mph - N/A   Partly Cloudy
2:15 AM 53.6 °F 50.0 °F 88% 30.08 in 10.0 mi SE 3.5 mph - N/A   Partly Cloudy
2:35 AM 51.8 °F 50.0 °F 94% 30.08 in 8.0 mi SE 5.8 mph - N/A   Scattered Clouds
2:55 AM 51.8 °F 50.0 °F 94% 30.08 in 8.0 mi SE 4.6 mph - N/A   Mostly Cloudy
3:15 AM 51.8 °F 50.0 °F 94% 30.08 in 8.0 mi SSE 3.5 mph - N/A   Scattered Clouds
3:35 AM 51.8 °F 50.0 °F 94% 30.08 in 8.0 mi SSE 4.6 mph - N/A   Partly Cloudy
3:55 AM 51.8 °F 50.0 °F 94% 30.07 in 7.0 mi ESE 5.8 mph - N/A   Clear
4:15 AM 50.0 °F 50.0 °F 100% 30.07 in 7.0 mi East 3.5 mph - N/A   Clear
4:55 AM 51.8 °F 50.0 °F 94% 30.06 in 7.0 mi SSW 3.5 mph - N/A   Partly Cloudy
5:15 AM 51.8 °F 50.0 °F 94% 30.06 in 7.0 mi SSE 3.5 mph - N/A   Mostly Cloudy
5:35 AM 51.8 °F 51.8 °F 100% 30.06 in 6.0 mi SSE 5.8 mph - N/A   Overcast
5:55 AM 51.8 °F 51.8 °F 100% 30.06 in 8.0 mi SSE 5.8 mph - N/A   Overcast
6:15 AM 51.8 °F 51.8 °F 100% 30.07 in 8.0 mi SE 5.8 mph - N/A   Overcast
6:35 AM 51.8 °F 51.8 °F 100% 30.08 in 8.0 mi SSE 5.8 mph - N/A   Overcast
6:55 AM 51.8 °F 51.8 °F 100% 30.08 in 7.0 mi ESE 4.6 mph - N/A   Overcast
7:15 AM 51.8 °F 51.8 °F 100% 30.08 in 6.0 mi SSE 4.6 mph - N/A   Overcast
7:35 AM 51.8 °F 51.8 °F 100% 30.08 in 6.0 mi SSE 6.9 mph - N/A   Overcast
7:55 AM 51.8 °F 51.8 °F 100% 30.09 in 6.0 mi SSE 6.9 mph - N/A   Overcast
8:15 AM 51.8 °F 51.8 °F 100% 30.10 in 5.0 mi SSE 6.9 mph - N/A   Overcast
8:35 AM 51.8 °F 51.8 °F 100% 30.09 in 5.0 mi SE 5.8 mph - N/A   Overcast
8:55 AM 51.8 °F 51.8 °F 100% 30.10 in 7.0 mi SSE 6.9 mph - N/A   Overcast
9:15 AM 53.6 °F 53.6 °F 100% 30.11 in 10.0 mi ESE 9.2 mph - N/A   Overcast
9:35 AM 53.6 °F 51.8 °F 94% 30.11 in 10.0 mi East 9.2 mph - N/A   Scattered Clouds
9:55 AM 55.4 °F 51.8 °F 88% 30.11 in 10.0 mi East 8.1 mph - N/A   Partly Cloudy
10:15 AM 57.2 °F 51.8 °F 82% 30.10 in 10.0 mi ESE 5.8 mph - N/A   Scattered Clouds
10:35 AM 57.2 °F 50.0 °F 77% 30.10 in 10.0 mi ESE 5.8 mph - N/A   Mostly Cloudy
10:55 AM 59.0 °F 50.0 °F 72% 30.10 in 10.0 mi South 4.6 mph - N/A   Mostly Cloudy
11:15 AM 59.0 °F 50.0 °F 72% 30.10 in 10.0 mi SSE 5.8 mph - N/A   Mostly Cloudy
11:35 AM 59.0 °F 50.0 °F 72% 30.09 in 10.0 mi SSE 5.8 mph - N/A   Mostly Cloudy
11:55 AM 62.6 °F 50.0 °F 63% 30.09 in 10.0 mi SSW 8.1 mph - N/A   Partly Cloudy
12:15 PM 62.6 °F 50.0 °F 63% 30.09 in 10.0 mi South 5.8 mph - N/A   Clear
12:35 PM 62.6 °F 48.2 °F 59% 30.09 in 10.0 mi SE 3.5 mph - N/A   Partly Cloudy
12:55 PM 62.6 °F 50.0 °F 63% 30.09 in 10.0 mi South 5.8 mph - N/A   Scattered Clouds
1:15 PM 62.6 °F 50.0 °F 63% 30.08 in 10.0 mi South 4.6 mph - N/A   Mostly Cloudy
1:35 PM 64.4 °F 50.0 °F 59% 30.07 in 10.0 mi Calm Calm - N/A   Mostly Cloudy
1:55 PM 64.4 °F 51.8 °F 64% 30.06 in 10.0 mi SE 5.8 mph - N/A   Mostly Cloudy
2:15 PM 66.2 °F 51.8 °F 60% 30.05 in 10.0 mi Calm Calm - N/A   Mostly Cloudy
2:35 PM 69.8 °F 46.4 °F 43% 30.05 in 10.0 mi SW 11.5 mph 17.3 mph N/A   Scattered Clouds
2:55 PM 69.8 °F 46.4 °F 43% 30.05 in 10.0 mi WSW 11.5 mph - N/A   Mostly Cloudy
3:15 PM 68.0 °F 44.6 °F 43% 30.04 in 10.0 mi SW 13.8 mph 17.3 mph N/A   Partly Cloudy
3:35 PM 69.8 °F 46.4 °F 43% 30.03 in 10.0 mi WSW 12.7 mph - N/A   Clear
3:55 PM 68.0 °F 44.6 °F 43% 30.03 in 10.0 mi SSW 6.9 mph - N/A   Clear
4:15 PM 68.0 °F 44.6 °F 43% 30.02 in 10.0 mi South 9.2 mph - N/A   Clear
4:35 PM 68.0 °F 44.6 °F 43% 30.01 in 10.0 mi SW 6.9 mph - N/A   Clear
4:55 PM 68.0 °F 46.4 °F 46% 30.01 in 10.0 mi WSW 8.1 mph - N/A   Clear
5:15 PM 66.2 °F 44.6 °F 46% 30.00 in 10.0 mi WSW 6.9 mph - N/A   Clear
5:35 PM 66.2 °F 46.4 °F 49% 30.00 in 10.0 mi SW 6.9 mph - N/A   Mostly Cloudy
5:55 PM 64.4 °F 46.4 °F 52% 30.00 in 10.0 mi WSW 5.8 mph - N/A   Scattered Clouds
6:15 PM 62.6 °F 46.4 °F 55% 30.01 in 10.0 mi WSW 12.7 mph 23.0 mph N/A   Scattered Clouds
6:35 PM 62.6 °F 48.2 °F 59% 30.02 in 8.0 mi WSW 11.5 mph 18.4 mph 0.01 in Rain Light Rain
6:55 PM 60.8 °F 50.0 °F 68% 30.01 in 10.0 mi WSW 8.1 mph 16.1 mph 0.01 in   Mostly Cloudy
7:15 PM 60.8 °F 50.0 °F 68% 30.02 in 10.0 mi NNW 4.6 mph - N/A   Mostly Cloudy
7:35 PM 60.8 °F 50.0 °F 68% 30.02 in 10.0 mi West 6.9 mph - N/A   Partly Cloudy
7:55 PM 60.8 °F 50.0 °F 68% 30.03 in 10.0 mi WSW 6.9 mph - N/A   Mostly Cloudy
8:15 PM 59.0 °F 50.0 °F 72% 30.03 in 10.0 mi Calm Calm - N/A   Overcast
8:35 PM 60.8 °F 50.0 °F 68% 30.03 in 10.0 mi Calm Calm - N/A   Overcast
8:55 PM 59.0 °F 51.8 °F 77% 30.03 in 10.0 mi Calm Calm - N/A   Overcast
9:15 PM 59.0 °F 51.8 °F 77% 30.04 in 10.0 mi NNE 5.8 mph - N/A   Overcast
9:35 PM 59.0 °F 51.8 °F 77% 30.04 in 10.0 mi Calm Calm - N/A   Overcast
9:55 PM 59.0 °F 51.8 °F 77% 30.05 in 10.0 mi SSE 3.5 mph - N/A   Overcast
10:15 PM 59.0 °F 51.8 °F 77% 30.04 in 10.0 mi West 4.6 mph - N/A   Overcast
10:35 PM 59.0 °F 51.8 °F 77% 30.04 in 10.0 mi SW 3.5 mph - N/A   Overcast
10:55 PM 59.0 °F 51.8 °F 77% 30.05 in 10.0 mi SW 4.6 mph - N/A   Overcast
11:15 PM 59.0 °F 51.8 °F 77% 30.05 in 10.0 mi East 4.6 mph - N/A   Overcast
11:35 PM 59.0 °F 53.6 °F 82% 30.05 in 10.0 mi SSE 4.6 mph - N/A   Overcast
11:55 PM 59.0 °F 53.6 °F 82% 30.05 in 10.0 mi Calm Calm - N/A   Overcast